Regional Weather Roundup
Issued by NWS

Home | Current Version | Previous Version | Graphics & Text | Print | Product List | Glossary On
Versions: 1 2 3 4 5 6 7 8 9 10 11 12 13 14 15 16 17 18 19 20 21 22 23 24 25 26 27 28 29 30 31 32 33 34 35 36 37 38 39 40 41 42 43 44 45 46 47 48 49 50
000
ASUS43 KMPX 241401
RWRMN
WEATHER ROUNDUP FOR MINNESOTA
NATIONAL WEATHER SERVICE TWIN CITIES/CHANHASSEN MN
900 AM CDT SUN MAY 24 2015


NOTE: "FAIR" INDICATES FEW OR NO CLOUDS BELOW 12,000 FEET WITH NO
SIGNIFICANT WEATHER AND/OR OBSTRUCTIONS TO VISIBILITY. N/A MEANS
CURRENT SKY AND/OR WEATHER CONDITIONS ARE NOT AVAILABLE.

MNZ060>063-068>070-241500-
   Twin Cities Metro

CITY           SKY/WX    TMP DP  RH WIND       PRES   REMARKS
TWIN CITIES    CLOUDY    63  51  65 E8        30.05F
ST PAUL        CLOUDY    62  52  69 SE6       30.06S
CRYSTAL        CLOUDY    64  50  60 SE6       30.04F
BLAINE         CLOUDY    63  52  67 E6        30.05F
LAKEVILLE      DRIZZLE   61  52  72 E3        30.04F
EDEN PRAIRIE   CLOUDY    62  51  67 E7        30.03F
SOUTH ST PAUL  CLOUDY    63  50  63 CALM      30.05F
LAKE ELMO      CLOUDY    63  52  67 CALM      30.07S
$$
MNZ001>005-007-008-013>017-022>024-027-028-241500-
   Northwest Minnesota

CITY           SKY/WX    TMP DP  RH WIND       PRES   REMARKS
BEMIDJI        MOSUNNY   63  48  57 CALM      30.09F
HALLOCK        SUNNY     64  50  59 S6        30.07S
ROSEAU         SUNNY     64  52  63 SW5       30.08S
WARROAD        SUNNY     66  52  59 W5        30.07F
THIEF RVR FALL MOSUNNY   63  46  55 CALM      30.09F
CROOKSTON      MOSUNNY   64  48  55 CALM      30.08S
FOSSTON        MOSUNNY   63  52  67 CALM      30.09S
DETROIT LAKES  CLOUDY    63  46  55 E5        30.07S
MOORHEAD       CLOUDY    63  50  63 E8        30.05F
PARK RAPIDS    CLOUDY    63  46  54 E5        30.08S
MAHNOMEN       FAIR      65  47  53 NE7       30.08F
$$
MNZ006-009>011-018-025>026-241500-
   North Central Minnesota

CITY           SKY/WX    TMP DP  RH WIND       PRES   REMARKS
BAUDETTE       SUNNY     65  47  52 N5        30.07F
FLAG ISLAND    SUNNY     61  50  67 CALM      30.05S
INTL FALLS     SUNNY     66  47  50 NW5       30.08F
WASKISH        SUNNY     63  50  63 CALM      30.09F
BIG FORK       MOSUNNY   64  46  52 N3        30.10F
LONGVILLE      PTSUNNY   63  48  59 NE3       30.09F
GRAND RAPIDS   PTSUNNY   63  46  55 CALM      30.11F
CRANE LAKE     SUNNY     63  46  55 CALM      30.11S
ORR            MOSUNNY   63  43  48 CALM      30.09S
COOK           MOSUNNY   63  46  55 CALM      30.12S
WALKER         PTSUNNY   59  50  72 CALM      30.09F
$$
MNZ012-019>021-037-241500-
   Northeast Minnesota

CITY           SKY/WX    TMP DP  RH WIND       PRES   REMARKS
DULUTH         PTSUNNY   65  45  48 VRB3      30.11S
ELY            SUNNY     66  43  42 W5        30.11S
HIBBING        MOSUNNY   65  45  48 NE3       30.11F
EVELETH        MOSUNNY   63  45  51 CALM      30.12S
DULUTH HARBOR  PTSUNNY   55  48  76 CALM      30.11S
TWO HARBORS    MOSUNNY   73  50  43 CALM      30.08F
GRAND MARAIS     N/A     47  39  74 W9        30.08S
G MARAIS ARPRT SUNNY     66  41  39 N5        30.11S
$$
MNZ029>031-032-039>041-046>048-054>057-064-241500-
   West Central Minnesota

CITY           SKY/WX    TMP DP  RH WIND       PRES   REMARKS
FERGUS FALLS   CLOUDY    61  48  63 E7        30.04F
WHEATON        CLOUDY    61  48  63 E9        30.03F
MORRIS         CLOUDY    63  50  63 E12       30.00F
ALEXANDRIA     CLOUDY    60  48  64 E9        30.05F
ELBOW LAKE     CLOUDY    60  49  65 E9        30.02F
WADENA         CLOUDY    57  46  67 E5        30.07S
GLENWOOD       CLOUDY    57  48  72 NE8       30.04F
APPLETON       LGT RAIN  61  54  77 E7        30.00F
BENSON         LGT RAIN  59  52  77 E5        30.01F
ORTONVILLE     DRIZZLE   61  52  72 SE6       30.01S
MADISON        DRIZZLE   59  54  82 E6        30.00F
WILLMAR        FAIR      61  54  77 E8        30.03F
$$
MNZ033>034-036-042>043-049>051-058-059-241500-
   Central Minnesota

CITY           SKY/WX    TMP DP  RH WIND       PRES   REMARKS
ST CLOUD       CLOUDY    59  50  72 E6        30.05F
SAUK CENTRE    CLOUDY    59  49  69 NE7       30.04F
PAYNESVILLE    CLOUDY    58  49  71 NE6       30.04F
AITKIN         CLOUDY    59  48  67 CALM      30.08F
PINE RIVER     LGT RAIN  59  48  67 E6        30.12S
BRAINERD       CLOUDY    59  50  72 NE8       30.08F
STAPLES        CLOUDY    57  48  72 CALM      30.07F
LONG PRAIRIE   CLOUDY    59  46  63 NE8       30.05F
LITTLE FALLS   CLOUDY    61  45  55 E3        30.06F
LITCHFIELD     DRIZZLE   61  55  82 E5        30.03F
BUFFALO        RAIN      61  51  70 CALM      30.05F
MAPLE LAKE     DRIZZLE   61  54  77 E5        30.05F
$$
MNZ037-044-045-052-053-241500-
   East Central Minnesota

CITY           SKY/WX    TMP DP  RH WIND       PRES   REMARKS
PRINCETON      LGT RAIN  63  52  67 E5        30.06S
MORA           CLOUDY    59  46  63 CALM      30.09S
CAMBRIDGE      CLOUDY    63  50  63 E3        30.05S
RUSH CITY      CLOUDY    60  50  68 NE5       30.07F
MOOSE LAKE     CLOUDY    59  46  63 CALM      30.08S
HINCKLEY       LGT RAIN  59  52  77 NE3       30.08F
CLOQUET        PTSUNNY   63  45  51 CALM      30.11S
MCGREGOR       CLOUDY    59  50  72 E3        30.10F
$$
MNZ071>073-080-081-089-090-097-098-241500-
   Southwest Minnesota

CITY           SKY/WX    TMP DP  RH WIND       PRES   REMARKS
MONTEVIDEO     DRIZZLE   59  54  82 SE9       30.01S
GRANITE FALLS  CLOUDY    60  51  71 E5        30.01F
CANBY          LGT RAIN  58  56  92 CALM      30.01S
MARSHALL       CLOUDY    59  52  77 E7        29.98F
REDWOOD FALLS  LGT RAIN  59  54  83 E5        29.99F
OLIVIA         CLOUDY    59  50  72 E9        30.00F
PIPESTONE      CLOUDY    59  55  88 E10       29.97S
WINDOM         CLOUDY    61  55  82 E12       29.99F
WORTHINGTON    CLOUDY    59  54  82 E15       29.97F
JACKSON        CLOUDY    59  57  94 E9        29.99S
TRACY          CLOUDY    61  58  89 E6        29.99S
SLAYTON        CLOUDY    58  58  97 CALM      29.99S
$$
MNZ065>067-074>077-082>085-091>093-241500-
   South Central Minnesota

CITY           SKY/WX    TMP DP  RH WIND       PRES   REMARKS
MANKATO        CLOUDY    61  54  77 E8        30.01F
NEW ULM        CLOUDY    61  57  88 CALM      30.00F
ST JAMES       CLOUDY    61  57  88 E8        30.00F
FAIRMONT       CLOUDY    61  54  77 E14       29.98F
GLENCOE        RAIN      62  56  82 E6        30.02F
FARIBAULT      LGT RAIN  61  55  82 E5        30.03F
OWATONNA       CLOUDY    61  55  82 E10       30.02F
WASECA         CLOUDY    61  52  72 E10       30.02F
ALBERT LEA     LGT RAIN  61  57  88 E12       30.01F
$$
MNZ078>079-086>088-094>096-241500-
   Southeast Minnesota

CITY           SKY/WX    TMP DP  RH WIND       PRES   REMARKS
ROCHESTER      LGT RAIN  60  55  83 SE12      30.08S
RED WING       CLOUDY    64  50  59 SE6       30.05F
STANTON        LGT RAIN  64  52  66 E5        30.03F
DODGE CENTER   LGT RAIN  61  55  82 SE8       30.06S
WINONA         LGT RAIN  61  54  77 SE6       30.09R
AUSTIN         CLOUDY    61  55  82 E10       30.04F
PRESTON        DRIZZLE   58  54  85 SE8       30.08F
$$
ABBREVIATIONS USED IN REMARKS
   TC - TEMPERATURES IN CELSIUS
  WCI - WIND CHILL INDEX
   HX - HEAT INDEX
  VSB - VISIBILITY
$$


USA.gov is the U.S. government's official web portal to all federal, state and local government web resources and services.